Shannon, Ireland

8:54 AM IST on May 27, 2017 (GMT +0100)
Shannon

Weather History for EINN - January, 2012

Change the Weather History Date:

Monday, January 2, 2012

  Actual Average Record
Temperature  
Mean Temperature 41 °F -  
Max Temperature 46 °F 47 °F 53 °F (2013)
Min Temperature 37 °F 37 °F 28 °F (1997)
Degree Days  
Heating Degree Days 24    
Moisture  
Dew Point 37 °F    
Average Humidity 84    
Maximum Humidity 100    
Minimum Humidity 71    
Precipitation  
Precipitation 0.08 in 0.13 in - ()
Sea Level Pressure  
Sea Level Pressure 29.56 in    
Wind  
Wind Speed 16 mph ()    
Max Wind Speed 30 mph    
Max Gust Speed 44 mph    
Visibility 6.3 miles    
Events Rain , Hail    
Averages and records for this station are not official NWS values.
T = Trace of Precipitation, MM = Missing Value Source: Averaged Metar Reports

Daily Weather History Graph

Daily Weather History Graph

Search for Another Location

Airport or City:

Trip Planner

Search our weather history database for the weather conditions in past years. The results will help you decide how hot, cold, wet, or windy it might be!

Date:

Astronomy

Jan. 02, 2012 Rise Set
Actual Time 8:47 AM GMT 4:31 PM GMT
Civil Twilight 8:05 AM GMT 5:13 PM GMT
Nautical Twilight 7:21 AM GMT 5:57 PM GMT
Astronomical Twilight 6:39 AM GMT 6:39 PM GMT
Moon 12:04 PM GMT (1/2) 2:01 AM GMT (1/2)
Length of Visible Light 9h 07m
Length of Day
7h 44m
First Quarter, 61% of the Moon is Illuminated
Jan 2
First Quarter
Jan 9
Full
Jan 16
Last Quarter
Jan 23
New
Jan 31
First Quarter

Hourly Weather History & Observations

Time (GMT) Temp. Windchill Dew Point Humidity Pressure Visibility Wind Dir Wind Speed Gust Speed Precip Events Conditions
12:00 AM 39 °F - 36 °F 83% 29.51 in 12 mi SW 13.4 mph - - Rain Light Rain Showers
12:00 AM 39.2 °F 31.2 °F 35.6 °F 87% 29.50 in 6.2 mi SW 13.8 mph - N/A   Scattered Clouds
12:30 AM 39.2 °F 27.4 °F 33.8 °F 81% 29.50 in 6.2 mi WSW 29.9 mph 43.7 mph N/A Rain Light Rain Showers
1:00 AM 39.2 °F 29.8 °F 35.6 °F 87% 29.50 in 6.2 mi WSW 18.4 mph - N/A   Scattered Clouds
1:30 AM 39.2 °F 30.5 °F 35.6 °F 87% 29.50 in 6.2 mi SW 16.1 mph - N/A Rain Light Rain Showers
2:00 AM 39.2 °F 30.8 °F 33.8 °F 81% 29.53 in 6.2 mi WSW 15.0 mph - N/A   Partly Cloudy
2:30 AM 39.2 °F 29.3 °F 32.0 °F 75% 29.53 in 6.2 mi SW 20.7 mph - N/A Rain Light Rain Showers
3:00 AM 39.2 °F 28.3 °F 33.8 °F 81% 29.53 in 6.2 mi WSW 25.3 mph - N/A Rain Light Rain Showers
3:30 AM 39.2 °F 32.0 °F 33.8 °F 81% 29.53 in 6.2 mi WSW 11.5 mph - N/A   Mostly Cloudy
4:00 AM 37.4 °F 29.3 °F 33.8 °F 87% 29.53 in 6.2 mi South 12.7 mph - N/A   Mostly Cloudy
4:30 AM 41.0 °F 31.6 °F 35.6 °F 81% 29.56 in 6.2 mi WSW 20.7 mph 33.4 mph N/A Rain Light Rain Showers
5:00 AM 37.4 °F 30.8 °F 33.8 °F 87% 29.53 in 6.2 mi WSW 9.2 mph - N/A   Partly Cloudy
5:30 AM 39.2 °F 32.5 °F 33.8 °F 81% 29.53 in 6.2 mi WSW 10.4 mph - N/A   Mostly Cloudy
6:00 AM 39 °F - 33 °F 73% 29.57 in 12 mi WSW 15.7 mph - - Rain Light Rain Showers
6:00 AM 39.2 °F 30.8 °F 33.8 °F 81% 29.56 in 6.2 mi WSW 15.0 mph - N/A   Partly Cloudy
6:30 AM 41.0 °F 32.5 °F 33.8 °F 76% 29.56 in 6.2 mi WSW 17.3 mph - N/A Rain Light Rain Showers
7:00 AM 41.0 °F 33.1 °F 33.8 °F 76% 29.56 in 6.2 mi WSW 15.0 mph - N/A   Partly Cloudy
7:30 AM 39.2 °F 28.5 °F 35.6 °F 87% 29.56 in 6.2 mi SW 24.2 mph - N/A Rain Light Rain Showers
8:00 AM 37.4 °F 30.8 °F 33.8 °F 87% 29.59 in 6.2 mi SSW 9.2 mph - N/A   Mostly Cloudy
8:30 AM 37.4 °F 31.4 °F 33.8 °F 87% 29.59 in 6.2 mi South 8.1 mph - N/A   Scattered Clouds
9:00 AM 39.2 °F 30.5 °F 33.8 °F 81% 29.59 in 6.2 mi SW 16.1 mph - N/A   Scattered Clouds
9:30 AM 39.2 °F 30.8 °F 35.6 °F 87% 29.59 in 6.2 mi SW 15.0 mph - N/A   Scattered Clouds
10:00 AM 39.2 °F 30.8 °F 33.8 °F 81% 29.62 in 6.2 mi South 15.0 mph - N/A   Scattered Clouds
10:30 AM 39.2 °F 30.8 °F 35.6 °F 87% 29.62 in 6.2 mi SW 15.0 mph 27.6 mph N/A   Mostly Cloudy
11:00 AM 41.0 °F 32.2 °F 35.6 °F 81% 29.65 in 6.2 mi WSW 18.4 mph - N/A   Scattered Clouds
11:30 AM 42.8 °F 34.0 °F 37.4 °F 81% 29.62 in 6.2 mi SW 20.7 mph - N/A   Partly Cloudy
12:00 PM 39 °F - 35 °F 81% 29.66 in 9 mi West 20.1 mph - - Hail Light Hail Showers
12:00 PM 39.2 °F 29.3 °F 35.6 °F 87% 29.65 in 6.2 mi West 20.7 mph 34.5 mph N/A Rain Light Rain Showers
12:30 PM 41.0 °F 31.6 °F 37.4 °F 87% 29.65 in 6.2 mi WSW 20.7 mph - N/A   Scattered Clouds
1:00 PM 44.6 °F 36.4 °F 35.6 °F 71% 29.62 in 6.2 mi WSW 20.7 mph - N/A   Partly Cloudy
1:30 PM 44.6 °F 36.9 °F 37.4 °F 76% 29.62 in 6.2 mi West 18.4 mph 34.5 mph N/A   Scattered Clouds
2:00 PM 44.6 °F 36.9 °F 37.4 °F 76% 29.62 in 6.2 mi SW 18.4 mph - N/A   Partly Cloudy
2:30 PM 44.6 °F 37.4 °F 39.2 °F 81% 29.65 in 6.2 mi WSW 16.1 mph - N/A   Scattered Clouds
3:00 PM 42.8 °F 33.8 °F 39.2 °F 87% 29.65 in 6.2 mi SW 21.9 mph 33.4 mph N/A Rain Light Rain Showers
3:30 PM 42.8 °F 33.5 °F 37.4 °F 81% 29.65 in 6.2 mi WSW 23.0 mph - N/A Rain Light Rain Showers
4:00 PM 42.8 °F 36.2 °F 37.4 °F 81% 29.65 in 6.2 mi WSW 12.7 mph - N/A   Mostly Cloudy
4:30 PM 42.8 °F 37.0 °F 39.2 °F 87% 29.65 in 6.2 mi SW 10.4 mph - N/A Rain Light Rain Showers
5:00 PM 44.6 °F 37.2 °F 39.2 °F 81% 29.65 in 6.2 mi SW 17.3 mph - N/A   Mostly Cloudy
5:30 PM 42.8 °F 35.8 °F 39.2 °F 87% 29.65 in 6.2 mi SSW 13.8 mph - N/A   Mostly Cloudy
6:00 PM 43 °F - 39 °F 81% 29.68 in 9 mi SSW 17.9 mph - - Rain Light Rain Showers
6:00 PM 42.8 °F 34.5 °F 39.2 °F 87% 29.65 in 6.2 mi SSW 18.4 mph - N/A   Mostly Cloudy
6:30 PM 42.8 °F 36.2 °F 39.2 °F 87% 29.62 in 6.2 mi South 12.7 mph - N/A   Mostly Cloudy
7:00 PM 42.8 °F 35.4 °F 39.2 °F 87% 29.62 in 6.2 mi South 15.0 mph - N/A   Mostly Cloudy
7:30 PM 42.8 °F 35.8 °F 39.2 °F 87% 29.59 in 6.2 mi South 13.8 mph - N/A   Mostly Cloudy
8:00 PM 44.6 °F 38.1 °F 39.2 °F 81% 29.56 in 6.2 mi South 13.8 mph - N/A Rain Light Rain Showers
8:30 PM 44.6 °F 37.8 °F 41.0 °F 87% 29.53 in 6.2 mi SSE 15.0 mph - N/A Rain Light Rain
9:00 PM 44.6 °F 36.9 °F 41.0 °F 87% 29.47 in 6.2 mi SSE 18.4 mph - N/A Rain Light Rain
9:30 PM 44.6 °F 36.4 °F 42.8 °F 93% 29.44 in 5.6 mi SSE 20.7 mph - N/A Rain Light Rain
10:00 PM 44.6 °F 36.1 °F 42.8 °F 93% 29.36 in 5.6 mi SSE 21.9 mph - N/A Rain Light Rain
10:30 PM 44.6 °F 36.4 °F 44.6 °F 100% 29.30 in 4.3 mi SSE 20.7 mph - N/A Rain Light Rain
11:00 PM 44.6 °F 35.3 °F 44.6 °F 100% 29.24 in 3.1 mi South 26.5 mph - N/A Rain Light Rain
11:30 PM 46.4 °F 37.4 °F 46.4 °F 100% 29.21 in 1.9 mi South 28.8 mph - N/A Rain Light Rain